User: anonymous   Login
Location: Unspecified
(0.0000°N, 0.0000°E)
Time: 20:04:51
(UTC+00:00)
Language:

OBJECT H - Orbit

View from above orbital plane
View from above orbital plane
View from above satellite
View from above satellite

Ground track
Ground track

The orbit is defined by the following mean orbital elements,

1 59780U          26145.58369854 +.00000000 +00000-0 +67398-4 0 00005
2 59780  98.6672 264.6442 0011070 276.4122  83.5800 14.31836157    03
Epoch (UTC): 25 May 2026 14:00:31
Eccentricity: 0.0011070
inclination: 98.6672°
perigee height: 778 km
apogee height: 794 km
right ascension of ascending node: 264.6442°
argument of perigee: 276.4122°
revolutions per day: 14.31836157
mean anomaly at epoch: 83.5800°

The dashed part of the orbit path shows where the satellite is in the earth's shadow,  

DLR